RH
6 7 6 6 10 21 31 33 26 15 14 17 16 12 17 31 32 22 21 23 20 18 18 19 17 15 21 29 27 15 7 8 11 11 38 80 83 82 99 107 104 100 94 80 82 92 94 98 101 100 100 102 98 94 96 91 83 65 66 90 101 101 104 101 72 43 35 42 53 43 37 48 66 85 101 96 81 62 37 29 35 33 23 26 45 56 58 64 68 58 43 32 23 23 30 30 28
6 7 7 6 8 14 18 26 28 19 15 16 17 18 42 65 53 38 32 25 19 16 15 11 10 11 13 14 11 6 7 11 16 27 59 96 96 94 104 106 101 98 97 88 89 86 75 78 82 95 102 100 100 91 83 83 92 89 82 83 81 93 103 84 49 36 39 54 60 46 55 84 97 97 81 55 38 26 25 36 36 25 22 44 61 61 64 70 65 51 43 34 24 23 28 29 27
8 7 6 7 7 7 15 34 44 45 44 31 25 34 51 53 37 32 25 16 13 12 10 9 11 13 16 14 11 14 18 21 33 47 66 93 99 102 108 99 92 91 93 94 99 89 70 60 53 76 95 90 94 84 62 51 55 66 84 91 84 93 90 57 35 36 46 61 61 64 93 100 83 64 35 14 17 26 35 34 26 20 29 57 67 69 70 65 60 50 42 35 25 18 26 30 30
7 7 7 7 7 8 14 27 36 41 44 30 21 23 23 18 14 15 13 10 11 12 15 17 20 21 20 21 32 36 34 46 64 66 70 92 101 98 95 88 93 94 90 92 101 97 84 75 57 63 82 80 76 71 61 52 50 57 76 85 76 72 58 40 37 40 55 73 78 88 90 66 46 27 10 17 33 37 30 21 20 21 41 70 73 70 60 58 59 47 39 36 27 14 19 25 37
8 8 7 8 7 7 7 12 20 21 20 15 9 6 4 5 7 10 12 16 23 36 47 51 49 43 36 38 56 53 50 74 88 84 82 96 98 81 70 73 90 94 85 81 90 101 99 99 90 82 85 81 67 59 59 57 52 47 54 56 49 45 40 40 45 55 77 92 88 70 42 29 25 11 19 39 38 26 17 16 20 30 58 77 70 61 51 59 57 42 39 34 31 16 13 24 43
9 9 8 8 7 6 5 8 15 13 8 6 4 3 5 6 10 15 18 26 43 60 67 74 78 77 73 72 76 65 70 93 98 96 88 85 83 74 75 79 87 89 80 70 79 102 102 90 81 77 76 67 50 43 49 61 59 54 61 58 48 51 60 68 74 85 92 81 59 36 21 21 13 13 36 36 18 11 12 19 29 43 66 74 64 52 49 62 54 40 38 32 31 18 15 27 40
9 9 9 8 7 7 5 6 10 9 7 7 8 10 11 12 16 20 25 35 48 59 65 72 79 84 86 88 89 83 89 100 101 102 94 87 82 77 82 82 78 72 65 58 65 77 73 60 50 49 52 48 43 42 45 60 74 82 80 62 63 84 95 95 88 80 63 42 28 22 17 12 11 25 31 14 7 9 18 30 38 52 69 70 56 42 51 68 53 40 40 34 30 21 19 21 30
10 9 8 8 8 7 6 6 7 9 18 21 21 23 18 15 19 26 32 38 51 64 70 71 74 77 79 83 89 90 95 101 102 103 102 102 96 87 81 75 70 62 62 66 69 65 60 59 55 48 45 45 45 48 50 63 82 92 86 78 91 100 88 73 56 43 29 19 16 13 9 13 20 23 14 5 11 20 34 42 43 61 72 60 43 36 57 71 52 46 46 35 33 30 28 24 30
9 9 9 10 9 9 9 8 10 18 33 37 31 26 25 30 40 52 55 55 63 72 77 81 85 88 88 87 88 88 90 96 102 104 103 103 102 101 95 91 90 87 89 93 94 91 87 85 80 70 65 65 66 70 75 86 95 92 85 80 76 64 48 37 27 22 17 12 9 10 17 22 20 14 11 12 24 41 51 45 48 69 69 50 38 37 58 74 56 51 51 42 41 35 33 31 31
9 9 9 11 11 10 10 11 19 30 45 54 51 41 41 58 72 82 89 87 85 86 92 97 99 102 103 99 96 95 93 93 100 105 103 102 101 100 99 98 98 98 97 95 97 97 96 97 97 95 93 92 90 89 86 84 79 65 55 48 41 34 30 24 19 17 12 9 11 19 24 17 13 15 17 23 38 54 55 46 57 74 65 43 35 38 54 72 62 54 59 59 56 45 39 33 28
11 13 11 13 13 13 15 25 36 43 57 71 78 73 71 81 87 91 98 100 99 99 101 104 104 104 105 104 103 102 100 99 100 103 100 98 96 94 95 94 93 92 91 89 89 90 91 92 91 88 86 82 76 71 66 61 51 40 34 30 27 29 28 22 17 12 9 12 18 20 13 9 15 22 26 37 48 55 55 47 57 73 61 40 33 39 49 65 68 62 62 68 68 60 53 42 33
17 19 19 18 16 19 30 49 62 66 75 83 90 96 96 99 101 99 100 102 103 101 102 105 98 88 94 103 103 101 100 97 96 96 93 89 88 89 91 95 100 100 98 97 93 93 92 87 78 69 63 58 54 50 45 39 34 30 27 26 26 27 24 18 15 13 18 23 19 8 6 14 24 34 41 47 46 49 55 49 52 67 59 40 33 37 43 56 67 68 66 68 67 64 67 59 48
25 25 29 34 32 39 58 77 88 92 96 96 97 100 101 102 103 102 104 107 105 102 99 90 70 58 68 78 79 84 85 83 83 82 80 78 77 78 80 89 99 98 95 94 90 86 80 74 66 59 54 49 46 41 36 31 27 25 23 25 24 22 20 21 24 24 29 30 18 9 12 27 38 47 54 53 48 50 55 55 58 64 59 44 33 36 41 47 57 65 68 65 63 64 67 69 72
37 39 45 54 58 65 79 91 99 101 101 100 100 100 101 102 102 104 102 95 86 79 71 55 42 37 42 47 50 56 60 61 61 62 62 62 62 64 68 79 88 87 84 81 75 70 65 62 58 54 50 45 41 33 29 25 23 22 20 20 19 22 27 32 31 22 22 25 21 18 23 38 45 46 52 57 56 57 56 60 66 63 57 48 35 35 38 41 48 53 61 61 60 63 62 75 96
53 63 73 82 88 90 93 97 104 106 105 105 103 99 94 90 88 86 76 61 52 46 39 33 29 27 30 35 40 43 46 49 50 50 50 51 54 56 60 66 72 72 70 67 62 59 56 53 50 45 39 33 27 21 19 18 18 18 17 19 20 21 28 37 32 16 13 16 17 19 29 43 42 38 50 63 64 66 63 62 71 65 59 52 37 37 38 39 46 48 54 57 56 59 61 78 100
46 71 85 91 91 89 90 92 95 92 88 88 86 75 60 52 49 46 40 33 30 26 23 23 22 20 22 25 28 30 32 35 39 42 44 46 48 50 53 55 56 56 54 51 47 43 40 36 30 25 20 16 12 11 11 14 18 19 20 21 20 20 28 36 25 10 8 10 13 19 28 32 27 30 47 64 68 74 75 70 75 71 63 56 40 38 38 37 44 48 50 52 54 54 54 65 76
32 56 69 68 64 61 62 63 61 57 52 51 50 43 33 28 26 25 25 23 21 19 18 19 20 20 20 21 20 20 20 20 21 23 26 28 30 32 34 35 34 32 28 25 23 20 18 15 14 12 10 10 9 10 12 17 21 18 16 16 16 20 24 23 10 8 11 10 15 18 19 18 21 31 38 48 59 78 91 81 77 73 65 58 46 41 40 37 39 42 45 47 50 49 48 52 52
51 56 65 67 63 56 51 45 41 40 41 40 35 31 26 25 28 28 27 26 26 25 25 24 23 22 20 19 17 15 13 10 9 8 9 10 11 12 13 14 13 12 12 12 11 11 13 18 21 21 18 14 12 13 15 16 13 9 11 13 13 15 15 12 7 8 10 10 14 18 20 24 34 42 36 34 45 74 101 96 85 77 68 61 53 47 44 41 38 39 43 45 46 45 45 47 49
82 75 71 72 65 51 40 33 28 30 35 37 36 32 28 33 39 38 35 35 34 31 28 26 23 21 20 17 14 12 10 9 8 7 7 7 7 8 9 10 11 12 12 10 9 10 11 17 22 21 17 13 10 10 10 7 8 14 18 17 13 11 9 7 7 5 4 11 21 27 31 37 50 54 42 37 46 72 98 102 92 81 73 67 59 55 51 46 41 39 45 51 53 52 48 48 49
75 86 83 78 65 42 27 22 26 33 37 38 40 38 38 44 47 43 40 37 33 32 30 28 24 19 16 15 14 13 11 11 10 10 9 9 9 10 11 14 15 12 7 4 4 4 4 5 6 7 7 7 7 6 5 6 12 17 15 12 10 7 5 4 5 1 6 25 40 47 48 53 66 70 59 49 54 73 92 95 87 78 73 70 65 60 56 50 45 45 52 59 67 66 59 55 53
35 66 81 79 70 44 21 18 30 41 43 43 45 45 45 48 47 42 39 35 37 42 40 34 29 24 19 15 12 11 10 8 7 7 6 6 7 8 12 16 14 7 4 5 5 4 4 2 2 2 2 4 4 3 4 5 8 10 8 7 5 4 4 4 2 4 20 40 50 59 64 66 72 72 71 65 62 70 82 86 83 79 76 74 71 67 63 59 56 58 66 75 83 84 75 65 61
12 37 57 64 62 40 18 18 29 38 41 43 46 46 46 46 42 39 38 40 55 70 64 49 38 32 29 25 18 10 7 8 7 6 5 4 4 3 6 8 7 7 9 11 10 10 6 3 4 3 4 4 4 5 6 8 12 14 14 11 9 8 5 4 10 22 38 43 44 58 64 68 69 61 62 67 67 67 71 79 82 83 82 78 75 74 73 69 65 67 77 88 94 95 92 84 74
8 20 34 44 41 24 14 18 24 33 40 43 45 45 43 40 36 36 42 50 70 87 79 64 53 42 32 29 27 18 10 8 7 6 5 4 4 5 6 8 10 14 16 15 13 10 7 6 6 5 7 6 8 10 11 15 15 15 13 12 14 11 7 15 29 38 43 43 44 52 52 51 49 36 32 36 37 41 51 65 78 90 96 94 89 87 86 82 82 87 94 100 102 101 99 97 93
5 8 15 20 17 12 13 16 21 34 45 44 45 46 39 33 30 33 44 58 71 76 65 56 55 50 39 30 27 23 18 13 10 9 7 5 5 6 7 9 12 16 16 15 12 8 8 8 7 8 9 9 12 13 14 14 10 10 8 10 14 10 15 36 47 42 39 40 38 35 31 28 24 16 13 13 14 15 21 34 47 60 71 79 83 84 85 85 88 91 92 93 97 104 105 102 101
7 5 6 7 7 8 9 10 17 34 50 51 53 54 41 29 27 28 40 56 60 52 43 40 41 40 38 34 29 26 23 19 15 13 11 10 9 8 7 8 10 12 12 10 9 8 9 9 10 10 9 11 14 12 12 9 7 8 7 10 11 10 27 48 49 37 28 23 19 16 14 12 11 10 11 11 13 13 11 14 16 19 23 29 34 36 38 39 41 40 40 42 48 66 92 105 103
9 7 5 5 5 5 6 7 13 32 55 61 60 58 45 31 25 25 32 44 46 36 29 32 33 29 26 26 22 20 18 15 13 11 10 11 11 10 8 7 7 7 6 7 8 8 9 10 10 8 9 12 12 12 11 12 15 13 9 8 8 24 45 51 48 36 21 14 10 10 10 10 12 13 18 20 15 11 11 12 11 11 11 11 11 12 12 12 12 12 11 12 13 19 42 74 95
7 5 5 5 6 6 6 7 11 27 48 55 54 52 44 34 27 26 27 33 36 29 27 30 27 20 16 13 10 10 10 8 8 8 8 8 7 6 5 5 4 4 5 8 8 8 9 8 10 10 12 13 12 13 13 16 20 17 14 7 12 35 41 43 57 41 17 13 12 14 13 22 39 40 41 47 42 28 14 11 12 12 12 12 13 13 13 13 12 13 12 11 13 11 12 26 50
7 4 3 3 6 8 8 8 10 18 28 35 37 35 33 30 26 22 23 26 25 22 26 26 17 11 8 5 4 6 7 8 7 7 7 6 5 6 7 6 4 6 7 8 8 8 9 11 14 14 11 9 7 8 7 9 11 11 12 10 28 46 31 37 64 43 13 17 29 46 53 55 66 69 66 63 56 44 19 10 14 12 13 13 13 14 13 15 15 15 14 12 13 13 13 13 17
13 7 5 3 5 9 9 9 9 11 15 19 21 22 22 21 20 18 17 15 15 20 22 15 7 5 4 2 3 5 7 8 7 7 7 7 7 7 8 8 7 8 7 8 9 9 10 11 11 8 6 4 6 7 7 8 8 9 9 10 32 43 25 24 38 25 17 42 65 78 84 70 52 53 63 49 35 34 19 11 18 18 16 14 14 15 13 16 17 15 14 14 14 13 13 14 15
17 12 9 7 6 7 9 11 11 10 10 10 12 13 13 11 11 10 10 10 15 20 16 10 8 5 4 6 7 7 8 8 8 8 8 8 8 8 8 8 7 7 7 8 9 9 9 8 7 6 7 7 9 10 9 10 9 10 10 9 16 17 12 12 15 13 18 52 79 72 60 44 23 23 37 32 25 28 18 14 25 27 23 18 15 15 15 17 17 16 18 16 16 17 15 14 14
21 16 14 13 10 7 6 9 12 12 10 10 11 12 13 12 10 8 8 11 15 15 16 18 14 9 10 12 10 9 9 9 10 10 10 10 9 9 8 8 8 8 8 9 9 10 9 9 9 8 9 9 10 10 10 11 10 10 10 9 10 8 11 12 13 16 15 31 51 48 38 27 17 14 18 21 23 26 24 26 31 30 26 21 18 17 18 18 16 18 21 22 22 21 19 17 14
24 20 17 18 17 12 8 8 13 17 18 16 14 15 16 13 9 6 4 8 13 15 23 23 14 12 15 15 14 13 11 9 9 9 10 10 11 12 12 13 12 10 9 10 10 10 10 10 9 9 12 14 13 12 11 11 11 11 11 10 11 10 11 12 15 21 20 21 25 29 30 25 22 21 19 22 24 28 35 35 30 28 26 24 23 22 22 21 20 22 23 25 26 23 21 20 17
26 24 20 20 21 20 16 13 13 16 16 10 6 6 8 7 6 8 8 13 20 25 27 17 9 13 16 16 17 14 12 11 10 10 11 13 16 18 20 22 21 15 12 14 14 12 10 9 11 18 23 24 20 15 12 13 13 13 14 13 13 14 15 16 20 25 25 24 25 26 27 27 29 29 28 29 28 31 39 38 30 28 29 28 28 28 28 28 27 28 28 27 24 20 22 23 22
23 26 24 22 21 22 23 22 18 14 10 6 5 6 7 8 10 14 15 15 17 18 15 7 5 11 15 16 17 15 14 14 14 16 17 18 20 21 22 24 24 21 19 24 29 24 11 10 26 37 39 34 29 23 17 15 16 17 19 19 19 21 21 20 24 29 28 25 26 27 30 33 34 35 36 37 34 33 40 42 34 31 34 34 35 35 34 35 32 31 30 26 23 20 22 24 25
18 22 26 25 23 22 23 25 25 23 19 17 17 16 16 16 17 17 16 15 12 9 7 5 7 12 16 17 18 18 18 18 19 21 22 23 25 26 24 22 22 23 24 30 40 33 14 22 44 51 48 43 38 32 22 19 22 23 25 27 27 27 25 26 28 29 28 27 28 30 33 36 38 40 41 42 43 40 41 42 37 36 40 40 41 41 39 37 34 33 32 27 24 23 24 24 26
17 18 21 25 26 25 24 24 25 27 28 29 31 32 30 24 23 23 20 18 15 11 11 10 11 15 18 20 20 22 22 23 23 23 25 26 27 28 25 24 25 25 26 32 44 39 21 27 46 49 46 48 49 42 28 25 27 24 26 30 31 29 28 31 33 32 30 31 33 35 38 40 42 44 45 47 47 45 44 44 42 41 43 44 42 41 42 39 35 34 34 32 28 28 29 28 27
19 17 17 20 24 26 26 25 25 25 27 30 35 43 46 36 27 26 23 22 19 14 13 14 15 18 20 22 22 25 26 27 29 29 29 29 29 30 28 28 29 30 30 33 43 48 37 34 40 43 43 44 51 50 38 31 29 28 33 34 33 32 31 34 37 38 38 37 39 41 44 46 47 48 50 50 48 47 47 47 47 47 47 48 41 37 41 41 39 37 37 36 34 35 36 34 33
21 19 17 16 19 23 25 26 25 25 25 28 30 38 48 51 47 38 28 24 22 18 16 16 16 17 20 22 25 29 32 34 35 35 34 34 34 33 33 34 34 36 36 35 38 45 48 46 45 44 42 41 45 47 42 36 34 39 43 38 35 33 30 33 35 38 41 43 45 47 49 51 53 55 55 55 54 53 52 52 52 52 52 53 45 35 39 45 44 42 41 40 40 42 42 40 39
22 21 19 17 16 18 22 24 25 25 25 26 28 30 35 44 50 48 41 33 26 21 19 19 18 19 20 23 27 33 37 40 41 42 40 38 37 37 37 38 39 40 40 41 41 43 47 50 51 48 44 45 46 46 45 41 41 50 56 50 41 34 33 32 32 35 37 40 46 50 53 55 58 64 68 69 68 66 63 59 56 54 54 56 48 37 39 48 49 46 45 44 45 47 47 45 44
24 22 21 19 17 16 18 20 22 25 26 26 27 28 29 31 34 38 44 45 40 33 27 25 23 21 22 24 29 35 39 44 46 48 48 44 42 41 40 40 40 41 41 41 42 45 49 52 55 56 54 57 60 59 59 56 57 61 66 65 55 47 44 40 35 35 35 37 43 50 55 58 61 70 81 83 78 74 66 59 57 54 53 53 48 41 41 47 53 54 50 47 48 51 51 50 49
25 24 22 21 18 17 17 17 19 21 24 26 26 27 28 29 29 29 32 38 44 46 46 45 39 30 28 29 32 37 41 48 54 56 53 48 45 43 42 41 39 38 40 41 42 43 47 50 54 58 60 62 64 65 65 65 67 70 73 75 73 67 60 51 44 41 39 39 41 47 56 64 68 76 89 86 72 65 57 51 49 49 52 54 51 47 45 47 57 61 57 50 49 55 58 55 54
24 24 23 22 20 19 19 17 17 17 20 23 25 27 28 29 29 29 29 30 33 39 46 55 56 48 41 37 38 42 46 54 59 57 52 47 45 43 40 37 33 30 30 32 33 34 35 38 41 43 44 43 45 47 49 50 52 57 62 65 66 63 55 48 45 44 44 43 43 46 53 64 75 84 94 89 70 58 53 48 45 44 49 53 53 52 51 54 63 69 66 56 52 58 62 61 60
24 23 23 22 21 20 20 19 17 17 19 21 21 22 26 29 30 31 32 32 30 30 32 39 46 50 51 49 46 47 51 58 59 53 49 46 42 40 35 29 26 24 22 21 21 22 22 23 25 26 25 24 25 27 29 30 30 32 34 36 37 36 34 33 36 40 44 46 47 49 51 58 72 87 100 98 81 66 56 53 49 44 45 48 49 48 52 64 73 79 77 62 56 62 65 66 63
24 22 22 22 22 20 20 19 19 18 19 20 19 18 20 23 25 27 30 32 31 31 32 31 34 39 48 53 52 51 52 55 54 51 49 44 37 33 28 23 20 19 19 19 18 17 16 16 17 17 18 18 20 21 22 22 22 23 22 23 23 22 23 24 26 31 37 43 49 53 56 56 62 81 100 103 93 81 69 64 58 48 46 49 51 45 48 70 83 88 88 69 61 70 72 69 62
23 21 21 22 22 21 20 20 19 19 20 20 19 18 19 18 18 19 22 26 27 30 33 34 34 35 39 44 47 49 49 49 50 51 47 37 29 26 22 19 18 17 17 17 16 16 15 15 15 16 17 17 18 19 21 22 22 24 24 23 22 21 21 21 23 25 29 37 46 52 58 59 59 71 94 103 100 93 84 77 69 57 47 48 56 50 43 67 91 95 95 78 66 79 81 69 59
21 20 21 22 22 22 21 21 19 19 21 21 20 19 19 19 19 17 18 20 21 25 29 31 32 33 34 37 38 39 42 43 44 42 37 28 22 21 20 18 17 16 17 16 16 16 16 17 17 17 17 17 19 19 20 22 23 24 24 23 22 20 20 20 21 22 25 31 41 49 54 59 60 64 86 104 102 97 93 88 80 65 50 44 58 62 44 59 92 99 98 88 77 87 88 69 56
20 18 20 21 22 23 23 22 21 20 20 20 20 20 20 20 20 19 18 19 18 20 22 24 25 26 27 28 28 29 31 32 31 29 25 22 20 19 18 18 17 17 18 17 17 17 17 18 18 18 18 18 19 20 20 21 22 23 23 23 22 19 18 17 17 18 23 29 36 44 51 56 59 62 83 101 97 92 92 92 85 64 48 43 58 74 54 49 84 98 96 96 89 94 93 70 53
19 18 20 21 21 23 24 24 23 22 23 21 19 19 20 20 20 20 20 19 19 19 19 20 20 20 20 21 21 22 22 22 22 22 20 19 19 19 19 19 18 18 18 19 19 18 18 19 19 19 19 19 20 20 21 21 21 22 21 21 20 19 16 14 14 15 20 28 35 44 51 55 59 65 81 90 84 82 84 88 80 53 41 42 55 80 67 45 73 96 93 97 98 101 97 73 54
21 19 20 22 22 23 25 26 26 26 26 23 20 18 19 19 20 21 20 20 20 20 19 19 19 19 18 18 18 18 19 19 19 19 19 19 19 19 20 19 19 19 19 19 19 19 19 19 20 20 20 21 21 21 21 20 20 21 20 20 20 19 17 14 14 14 16 25 35 45 52 55 59 64 71 74 72 78 84 82 64 37 32 37 46 73 74 50 68 95 94 94 99 102 99 80 62
25 21 21 23 24 25 26 27 28 28 28 27 23 20 19 19 19 20 20 21 22 22 21 20 20 20 19 19 18 18 18 18 19 19 19 19 19 19 19 19 19 19 19 20 19 19 19 20 20 21 21 21 21 20 20 20 20 19 19 19 19 19 19 18 17 16 14 17 26 38 48 53 58 61 65 70 76 85 85 66 40 26 28 34 45 71 78 60 70 95 96 92 96 102 100 87 73
28 24 23 24 25 25 27 27 27 28 29 29 26 24 23 21 18 19 20 20 21 22 22 22 22 21 21 20 19 19 19 18 19 20 21 21 21 20 20 20 20 20 20 20 20 20 20 21 21 21 21 21 21 20 20 19 19 19 19 19 20 20 19 19 18 18 17 16 17 24 34 44 53 62 69 76 79 75 62 39 25 28 30 34 53 77 80 69 75 93 97 93 97 103 102 93 83
28 26 23 24 26 26 25 26 27 27 27 28 28 28 29 26 23 22 21 20 20 21 22 23 22 22 22 22 21 21 20 21 21 21 22 22 22 22 22 21 21 21 21 21 21 21 21 21 21 20 21 20 20 20 20 20 20 20 20 21 22 22 22 22 21 21 21 20 18 16 19 27 34 44 53 57 53 43 33 28 30 36 36 42 65 83 81 75 80 94 100 97 99 104 105 100 91
29 27 25 27 28 25 23 24 26 25 24 27 28 30 31 31 30 29 26 23 21 22 22 22 22 22 22 21 21 21 21 22 22 22 22 22 22 22 21 21 22 21 21 21 21 20 20 20 20 20 20 20 20 20 20 21 21 22 23 23 25 28 29 30 29 29 29 28 29 27 25 27 29 32 33 31 30 27 29 37 39 39 43 55 75 88 87 82 84 96 103 101 100 104 107 106 98
27 27 28 28 25 21 21 22 24 24 24 27 29 30 31 32 33 33 31 29 26 25 25 24 22 22 21 21 21 21 22 22 21 21 21 21 21 21 21 21 21 20 20 20 20 20 19 20 19 19 20 20 20 21 22 24 26 27 28 29 33 37 39 39 38 38 37 35 35 36 36 37 37 36 33 32 35 38 42 44 40 42 53 67 84 97 98 93 91 97 102 101 101 102 105 107 103
27 29 28 24 21 21 21 22 24 24 24 26 28 29 30 32 33 33 32 33 32 30 30 28 26 25 24 24 24 24 24 23 23 21 21 22 22 22 23 23 22 21 21 20 20 21 20 20 21 21 22 22 22 24 27 30 32 34 35 35 38 40 40 40 39 37 35 34 36 38 39 41 42 42 44 46 48 49 48 42 41 55 70 80 94 105 104 100 97 97 98 100 101 101 102 104 102
26 31 28 23 22 22 23 23 24 24 22 24 27 28 29 31 32 32 32 34 34 34 34 33 31 30 28 29 30 31 29 28 26 24 23 24 24 24 25 25 25 24 23 24 24 23 23 23 24 24 25 26 28 31 33 34 36 37 36 36 36 37 35 35 35 34 33 36 39 42 43 44 45 50 52 52 51 46 41 44 59 77 81 82 95 103 102 103 101 98 98 100 101 100 101 102 100
24 29 30 28 27 26 27 26 26 26 25 27 29 29 30 32 32 31 32 33 34 34 35 35 34 33 33 33 34 35 34 33 31 29 29 29 29 30 30 29 28 27 27 29 28 27 27 28 28 29 30 31 33 36 37 37 36 35 35 34 34 34 34 36 38 38 39 41 43 43 43 42 44 50 51 47 40 38 49 69 82 82 75 80 97 102 101 103 101 99 100 101 102 100 100 102 100
22 28 32 33 31 29 29 27 27 29 28 29 30 30 31 33 32 31 30 31 33 33 34 34 34 35 35 35 36 36 36 35 34 33 33 33 34 34 35 35 34 33 33 34 34 34 33 33 35 35 33 34 35 37 38 37 35 35 36 33 33 35 38 40 41 42 43 42 42 41 40 41 47 52 46 39 42 59 80 91 87 79 75 84 99 102 100 101 98 99 102 100 101 101 100 102 101
Wind_Speed
27 27 28 31 33 34 33 32 32 33 32 32 33 33 33 32 33 35 35 35 36 36 35 35 34 33 34 34 33 32 30 28 27 24 18 14 14 14 15 14 11 11 14 14 12 10 11 15 16 15 16 19 21 23 23 25 27 29 32 32 30 28 29 34 43 46 47 49 49 49 51 51 52 53 55 58 60 58 55 50 46 42 38 34 31 32 33 36 39 40 40 39 36 31 25 22 19
27 27 27 28 31 34 34 31 29 30 32 33 33 33 30 28 28 31 33 33 34 35 35 35 34 33 33 33 32 30 27 26 25 21 16 14 15 15 16 15 14 15 16 16 15 15 16 18 19 18 18 19 20 23 26 26 27 28 31 35 37 37 36 41 48 48 48 49 49 51 52 53 55 56 58 59 56 52 48 45 42 37 32 29 29 31 33 37 39 39 39 38 34 28 25 23 21
27 27 27 26 28 31 31 28 25 25 29 31 31 31 31 29 28 30 31 31 30 31 31 30 30 29 28 27 26 23 22 22 22 19 15 14 15 15 16 16 17 18 18 17 17 18 19 20 21 21 22 23 22 25 27 27 29 30 32 36 39 40 41 46 49 49 49 50 52 53 54 54 55 56 55 51 48 45 43 41 39 34 29 27 29 31 34 37 37 37 38 36 31 25 21 20 19
27 27 27 27 26 28 27 25 24 25 26 28 30 32 32 32 31 29 28 27 25 25 24 24 24 24 23 21 19 18 18 19 18 17 15 14 14 15 16 17 18 19 17 16 17 19 20 20 22 24 24 24 25 27 28 30 32 33 35 37 38 40 44 48 49 49 49 51 52 52 53 53 54 53 49 44 42 41 42 40 37 32 27 26 28 32 35 35 34 36 37 34 30 23 19 16 14
27 27 28 27 26 26 26 25 25 26 27 28 30 31 31 30 28 24 22 20 19 17 16 16 16 17 17 17 16 16 16 15 15 14 14 14 14 15 16 16 17 17 17 17 18 19 20 20 20 23 25 27 30 31 33 35 35 35 36 37 39 43 46 48 49 49 49 49 50 52 53 53 53 48 43 40 41 41 41 38 34 29 24 25 29 32 34 33 33 35 35 32 29 24 18 13 11
26 26 27 26 26 26 25 25 24 25 25 25 26 27 26 25 22 20 18 17 14 12 10 10 10 12 13 14 14 15 14 12 12 13 13 14 14 15 15 16 16 18 19 20 21 21 21 22 24 27 29 31 32 33 34 35 36 36 36 38 42 45 45 46 47 48 48 50 52 54 54 52 48 42 39 40 40 39 37 35 32 27 23 25 30 31 32 30 32 34 33 32 29 25 18 12 10
24 26 27 26 25 25 25 24 22 21 21 22 22 22 22 21 19 18 16 14 11 9 9 9 9 10 11 11 13 15 14 11 10 10 12 14 15 15 15 16 17 18 20 21 22 23 24 25 27 29 31 32 32 33 33 34 36 37 38 41 43 44 45 46 47 48 50 51 52 52 51 48 42 38 38 38 37 35 34 32 29 25 24 27 29 30 30 28 30 32 32 31 29 25 20 16 13
23 25 26 25 25 24 22 21 19 17 17 18 19 18 18 17 16 14 12 11 9 9 9 9 9 9 10 10 11 15 17 15 13 11 12 14 15 16 16 16 16 17 19 23 24 27 28 28 28 29 30 32 33 34 34 35 37 38 40 42 43 45 47 48 48 49 50 50 49 48 46 41 36 35 37 35 32 31 31 31 28 24 25 27 27 28 28 26 28 30 31 31 29 25 22 19 16
22 23 24 23 23 22 21 19 18 16 15 15 16 15 14 11 10 10 9 9 9 10 11 10 10 9 9 10 10 13 17 20 18 16 15 15 15 17 18 18 19 19 21 23 26 28 30 30 30 31 32 32 33 35 36 36 37 39 40 41 43 45 46 47 47 47 47 46 44 42 37 34 33 34 33 30 29 29 30 29 26 23 26 27 25 27 26 25 26 27 29 30 29 26 23 20 16
20 22 21 21 20 20 19 19 18 16 14 13 13 12 11 9 9 10 10 11 12 13 13 13 12 12 12 12 12 12 14 18 20 20 19 18 18 18 18 20 21 22 23 24 26 27 28 29 29 30 32 34 36 37 37 38 38 39 40 42 43 44 45 45 44 43 42 40 36 33 31 31 32 31 29 28 28 28 29 27 24 22 25 25 24 26 25 23 23 25 26 28 29 27 24 22 18
19 21 20 19 19 18 18 17 16 15 14 12 12 12 11 11 12 12 14 15 15 16 17 17 17 16 16 16 15 15 15 16 18 21 21 20 20 20 19 19 20 22 23 23 24 25 25 26 27 29 31 33 35 36 37 38 39 40 41 42 43 44 44 42 40 38 35 31 29 29 29 30 30 29 28 28 28 28 27 26 22 21 23 22 23 25 25 22 20 21 23 25 27 26 24 23 20
17 19 19 19 19 19 18 16 16 15 15 14 13 13 14 14 16 17 18 19 20 20 20 21 20 19 18 18 18 17 17 18 19 20 22 22 22 21 20 19 19 20 21 22 23 24 25 26 28 30 31 33 34 36 37 38 39 40 41 42 42 42 40 36 33 29 26 25 26 28 28 28 29 29 28 28 28 28 26 24 21 20 21 20 20 23 23 21 19 18 20 23 25 25 24 23 22
16 17 17 17 18 19 18 17 17 17 17 17 16 16 16 18 19 19 20 21 21 21 22 21 20 19 19 19 19 19 20 20 21 21 22 23 23 23 22 21 21 21 22 23 24 25 27 28 30 32 33 34 35 37 38 38 39 39 39 39 38 36 32 28 25 24 24 25 26 26 27 27 28 28 28 28 27 27 24 21 19 18 19 18 18 20 21 21 19 17 18 21 24 25 25 24 23
16 16 15 15 16 17 18 18 18 17 17 18 17 17 17 18 19 20 20 20 20 21 21 21 20 19 18 18 19 20 20 21 22 22 23 24 24 24 24 24 24 24 24 25 26 27 29 30 31 32 34 35 36 37 37 37 37 36 35 34 31 27 25 24 24 25 26 25 25 24 25 25 27 29 28 28 27 26 24 19 18 18 18 17 16 17 19 20 19 17 16 19 22 23 25 25 22
15 16 16 16 17 18 18 18 19 18 18 19 19 19 19 19 20 21 21 21 21 21 21 21 21 20 19 19 19 19 20 21 21 22 22 23 23 24 24 25 25 26 26 27 28 29 30 31 32 33 34 36 36 35 34 32 30 29 28 27 24 23 22 23 25 25 24 24 23 23 24 25 27 29 28 28 27 26 23 18 17 17 17 16 14 15 17 19 20 18 17 17 19 21 23 24 19
15 16 16 17 17 18 18 19 20 21 21 22 22 20 19 17 18 19 20 20 19 19 19 20 20 20 20 20 20 21 21 21 22 22 23 23 24 24 25 25 26 26 27 28 29 30 30 31 31 32 32 32 31 29 28 26 24 23 23 23 22 22 22 22 24 23 23 23 23 23 24 25 27 28 28 27 26 25 22 19 17 17 17 15 12 12 15 17 18 18 17 16 17 19 21 20 14
16 16 16 17 17 17 17 19 20 21 21 21 21 19 16 14 14 15 17 17 17 16 16 16 17 18 18 19 19 20 20 21 21 22 23 23 24 25 25 25 25 26 26 26 26 26 26 26 25 25 25 24 23 23 22 21 20 21 21 22 22 21 21 21 22 22 21 22 22 23 24 24 25 27 28 27 25 23 21 19 18 17 16 15 12 11 12 14 15 16 17 17 16 17 18 17 13
17 18 18 17 16 16 15 16 18 19 18 19 18 17 14 11 11 13 14 13 13 13 12 12 13 13 14 15 16 16 17 17 18 19 19 20 21 21 21 20 20 20 20 19 19 19 19 18 18 18 18 18 18 18 18 18 19 20 21 21 21 21 21 20 20 20 20 21 22 22 23 24 24 26 27 26 24 21 19 19 18 17 16 14 11 10 10 11 12 13 16 18 17 16 16 16 16
18 19 19 17 15 13 12 12 14 15 15 14 13 12 10 7 8 10 10 9 8 6 6 7 7 7 8 9 10 11 11 11 12 13 13 14 14 14 13 13 13 13 13 14 14 14 14 14 14 15 16 16 16 17 18 19 19 19 18 18 19 20 20 20 20 20 20 21 21 22 23 24 24 26 27 25 24 21 18 18 17 17 17 14 11 10 11 13 14 15 18 20 20 17 16 15 16
20 20 19 17 14 11 9 9 10 10 10 8 7 6 6 5 6 7 6 5 3 1 1 0 1 0 1 3 3 4 4 5 6 7 7 8 8 8 8 9 9 10 11 11 11 12 13 13 14 14 15 16 16 17 18 19 19 18 18 17 18 19 19 19 20 20 20 20 20 22 23 23 25 27 27 26 24 22 20 18 17 17 16 14 12 11 12 14 16 18 21 24 24 21 18 16 16
17 20 19 18 15 12 9 7 8 8 8 5 4 4 4 5 6 6 6 5 4 5 5 4 4 3 3 2 2 2 2 3 4 4 5 5 6 6 6 7 8 9 10 10 10 11 12 13 13 14 15 16 16 17 18 18 18 19 19 18 17 16 17 17 18 18 18 19 20 21 21 22 25 27 27 25 24 22 21 20 19 18 16 13 13 13 14 15 17 19 22 25 26 24 20 18 16
8 15 19 18 16 13 8 7 9 9 7 6 5 4 5 6 7 8 7 7 6 6 6 6 5 4 4 4 4 3 4 4 5 5 6 6 7 7 7 8 8 9 9 10 10 11 12 13 13 14 14 15 16 17 17 17 18 18 18 17 16 15 15 16 17 18 19 20 21 21 21 23 26 28 27 25 24 23 23 22 21 20 17 15 15 16 17 18 19 22 25 26 27 26 23 20 19
4 8 13 15 15 11 8 8 9 8 6 5 4 4 4 6 7 8 7 8 6 5 5 4 4 4 4 4 4 4 5 6 6 6 7 8 8 8 8 8 8 8 9 10 10 11 11 12 12 13 14 14 15 16 16 16 16 16 16 16 15 15 14 15 17 19 20 21 22 23 24 26 27 27 26 25 25 24 23 22 22 21 19 18 18 19 21 23 25 27 28 28 28 27 25 23 21
10 5 7 11 11 9 8 7 7 6 4 3 3 2 2 4 5 6 7 6 3 3 3 3 3 3 3 4 5 6 7 8 8 8 8 8 8 8 7 7 7 7 8 9 9 10 10 10 11 12 13 14 14 15 15 15 16 15 15 15 15 14 14 15 18 20 21 21 22 23 24 24 23 23 23 24 24 23 22 21 22 22 22 21 21 23 25 27 29 30 31 30 29 27 26 25 23
15 9 5 7 9 8 6 6 6 5 3 1 1 1 3 2 2 4 4 2 1 3 4 3 3 2 2 3 5 7 8 9 9 9 9 8 8 7 6 5 5 5 6 7 7 8 9 10 11 12 12 13 14 15 15 16 16 16 15 14 14 13 14 16 19 20 20 20 20 20 20 21 21 21 22 23 24 25 25 25 24 23 22 22 22 23 24 26 28 29 30 30 29 27 26 25 25
19 15 10 8 9 8 6 4 4 4 2 2 2 4 5 3 1 2 3 4 4 4 4 4 3 2 1 1 3 5 7 8 9 8 7 7 6 6 4 3 2 3 4 5 6 7 8 10 11 11 12 12 13 14 15 15 15 15 14 12 12 12 14 16 18 19 19 19 19 19 19 20 22 23 23 24 26 27 28 28 28 27 26 25 25 25 26 27 28 29 29 29 28 27 25 24 24
20 18 16 15 14 11 7 4 3 3 3 4 6 7 7 6 4 4 5 6 6 4 3 3 3 2 1 2 2 2 3 4 4 4 3 2 2 1 2 3 4 5 5 5 6 8 9 10 10 11 11 12 13 14 15 16 16 16 14 13 13 14 15 16 16 17 17 17 17 18 20 21 24 26 27 27 27 28 30 30 30 29 29 29 28 29 31 32 33 34 34 33 31 30 28 26 25
20 19 20 21 20 16 10 5 2 2 4 6 8 9 8 8 7 7 7 7 7 4 1 1 1 0 2 5 6 5 5 4 4 4 4 5 6 6 7 7 7 7 7 7 8 9 10 11 12 13 13 14 14 15 16 17 17 16 16 15 13 14 16 16 15 16 17 17 17 18 19 21 24 26 26 27 26 27 29 29 31 31 30 28 28 30 32 34 37 38 37 35 33 32 30 29 29
19 19 22 24 22 18 14 10 5 1 3 6 8 9 9 8 8 8 7 6 5 3 5 5 4 5 7 9 10 10 10 9 8 8 9 9 10 11 10 10 10 10 10 11 11 12 13 13 14 14 14 15 16 17 17 17 16 16 16 16 15 15 16 16 15 16 18 18 18 18 19 22 25 25 24 24 24 25 26 27 30 33 32 30 29 28 30 34 39 40 39 38 37 35 33 31 31
19 18 22 24 22 18 14 12 10 7 2 2 5 7 6 4 3 3 2 3 5 8 10 8 8 9 11 14 15 16 16 15 15 14 15 15 15 15 14 14 14 13 13 12 12 13 13 13 14 14 15 15 16 16 16 16 16 16 16 17 17 17 16 17 18 19 19 18 18 19 20 22 25 25 23 23 24 25 24 26 30 34 34 33 31 28 30 35 38 40 43 43 42 41 38 35 32
17 16 19 22 22 19 14 12 12 11 9 6 3 3 2 4 4 4 4 6 10 12 11 10 11 12 15 17 18 18 18 18 18 18 17 17 17 16 15 14 13 13 12 12 12 12 12 12 13 14 15 15 15 15 15 15 15 16 16 17 17 18 18 19 20 21 21 18 17 18 19 21 24 26 25 25 27 26 26 29 32 35 36 34 33 30 32 35 36 40 44 45 45 45 44 41 36
14 15 16 19 19 18 16 13 11 12 11 9 9 8 8 9 8 8 7 8 12 13 12 12 13 14 15 15 15 16 16 16 16 16 16 16 15 15 15 14 14 12 12 11 11 11 11 11 13 13 14 14 14 14 14 15 15 16 16 16 17 18 19 21 22 23 22 20 19 19 20 22 24 25 26 27 29 29 28 30 33 37 39 37 35 34 35 37 38 41 43 44 46 48 47 45 42
11 12 13 14 14 15 15 14 12 11 11 11 12 13 12 12 12 11 11 11 13 13 13 13 14 14 12 11 12 13 14 14 14 14 14 14 14 14 15 16 16 14 13 12 12 11 11 11 12 14 14 14 14 14 14 15 16 16 17 18 18 19 20 21 22 22 22 21 21 22 23 25 26 26 27 29 31 31 28 28 33 39 41 40 38 37 39 40 41 40 41 43 46 49 49 47 47
7 8 9 9 9 10 11 12 12 12 12 12 13 14 14 14 13 12 12 13 13 14 13 13 12 11 11 11 12 13 13 14 15 15 14 13 13 13 14 15 15 14 13 13 12 11 11 11 13 14 15 14 14 14 14 15 16 17 18 19 20 21 20 20 21 22 21 21 22 24 26 26 27 28 29 30 31 31 28 28 33 38 41 42 40 40 41 42 41 40 41 43 46 48 48 48 49
5 5 6 6 6 6 6 6 7 8 8 9 10 11 12 12 11 10 9 10 11 12 13 12 11 11 11 13 13 13 14 15 15 16 15 15 14 14 14 14 14 13 12 11 11 11 10 10 12 14 15 14 14 15 14 15 17 19 20 20 20 21 21 21 21 22 21 21 23 26 27 27 28 29 30 32 32 32 31 33 35 36 40 43 42 41 42 43 41 40 41 44 46 47 48 48 50
3 2 3 3 3 4 4 3 3 3 3 4 5 6 7 8 8 7 6 6 8 10 11 11 11 11 12 13 13 14 14 15 15 15 15 15 14 14 13 13 13 13 13 12 11 9 8 8 10 14 16 15 14 14 14 15 17 20 21 21 20 20 21 23 23 23 23 24 25 27 28 28 29 31 32 32 33 33 34 35 35 35 38 42 43 43 43 43 42 40 42 45 46 48 49 49 50
5 3 1 1 2 1 1 1 1 2 2 2 2 3 4 5 6 6 5 5 5 7 8 9 10 10 11 11 12 12 12 13 13 13 14 13 13 13 12 11 11 12 12 13 11 9 7 6 8 12 14 15 14 13 12 13 16 19 21 21 20 20 21 23 23 24 24 25 26 26 27 28 30 31 32 32 33 34 35 35 35 35 37 40 44 45 44 44 43 42 43 45 46 48 49 50 51
9 7 5 3 2 3 2 2 2 1 1 1 2 2 3 3 3 4 4 4 4 5 6 6 7 8 8 8 8 8 9 9 10 11 11 11 11 11 11 10 10 10 11 11 10 9 7 6 8 10 12 13 13 12 11 12 15 19 20 21 21 21 22 23 24 25 26 26 27 27 28 29 30 32 33 33 34 35 36 36 37 37 38 39 43 46 46 45 44 44 45 46 48 50 51 52 53
13 12 9 7 6 4 4 4 4 3 1 0 1 2 2 2 2 2 2 3 4 4 5 5 4 4 4 4 5 5 5 6 7 8 9 10 10 10 10 10 9 8 9 10 9 8 8 8 8 9 11 12 12 12 12 13 16 19 21 22 22 23 24 25 25 26 27 28 28 29 29 30 30 32 34 34 35 36 37 38 38 39 39 40 42 45 46 46 46 45 45 46 48 51 53 53 55
17 16 14 12 10 6 6 6 6 5 3 2 1 0 0 0 1 1 1 1 3 4 4 4 3 3 2 2 1 1 3 5 6 7 8 9 10 10 10 9 8 7 8 9 9 9 9 9 10 10 11 12 13 14 14 15 18 20 22 23 23 24 26 27 27 28 28 29 30 30 30 30 31 32 33 35 35 35 37 38 39 40 41 41 43 45 46 47 48 47 46 46 48 51 53 54 55
21 19 18 17 14 10 9 8 7 7 6 5 4 3 3 3 2 1 1 2 3 4 5 5 5 6 6 5 5 5 6 6 7 8 9 9 10 10 10 9 8 8 8 8 9 9 10 10 11 11 12 13 14 15 16 17 19 21 22 23 24 26 28 29 29 29 30 30 31 31 31 31 31 31 32 34 34 35 36 38 40 41 42 43 44 45 46 48 50 50 47 46 48 52 53 53 55
24 23 21 20 17 14 12 11 9 8 7 7 7 6 5 5 5 4 4 4 4 5 6 7 8 9 9 9 9 8 8 8 8 9 9 10 10 10 9 9 9 9 9 8 9 10 11 12 12 13 14 15 16 17 18 19 20 21 23 24 25 27 29 30 31 31 32 32 32 32 32 32 32 31 31 32 33 34 35 38 40 41 42 43 44 46 47 49 51 52 49 46 47 51 53 53 55
29 27 24 22 20 17 16 14 12 10 9 9 9 8 7 7 6 6 6 6 7 7 7 8 8 9 10 11 11 10 10 10 10 11 11 11 11 10 9 10 10 10 10 10 10 11 12 13 14 15 16 17 17 18 19 21 22 23 24 25 27 29 31 33 33 34 34 34 35 34 34 34 34 33 31 31 33 34 35 37 40 42 43 44 46 48 49 50 52 53 51 46 46 51 52 52 55
34 31 26 24 22 20 19 17 16 13 11 12 12 10 9 9 8 8 7 8 8 8 8 8 8 8 9 11 12 12 12 11 12 12 12 11 11 11 10 11 12 12 12 12 13 13 14 15 16 17 18 18 19 20 21 22 24 26 27 28 30 31 33 34 35 36 36 36 36 37 36 36 35 34 33 32 33 35 36 38 41 44 46 47 48 50 51 51 52 53 52 47 47 51 52 52 55
38 33 27 26 24 22 21 21 20 16 14 16 15 12 11 10 11 10 8 9 10 8 9 9 9 8 9 11 12 13 13 12 12 13 12 12 13 12 12 12 13 13 14 14 15 16 16 17 18 19 20 21 22 22 23 24 26 28 30 31 32 33 34 35 36 37 38 38 38 38 38 37 37 36 35 33 34 36 38 40 43 46 49 50 49 51 52 51 50 53 51 46 47 51 51 52 54
41 34 29 28 25 23 23 23 22 18 18 20 18 16 14 12 13 13 10 11 11 10 10 10 10 10 10 12 13 13 12 12 12 12 13 14 14 14 14 14 15 15 16 17 18 18 18 19 20 21 23 24 25 25 26 27 28 30 32 33 34 35 36 37 38 39 39 39 39 39 39 38 37 37 36 35 36 38 40 43 46 48 51 52 51 50 52 51 48 51 50 46 47 50 51 53 54
41 34 31 30 27 25 24 25 24 20 22 26 23 19 18 16 16 15 13 14 13 12 13 13 13 12 12 13 14 14 14 14 14 14 14 15 16 16 16 17 16 17 18 19 20 21 21 22 23 24 25 27 28 29 29 29 30 31 33 34 35 36 37 39 40 40 41 41 40 39 39 38 37 37 36 36 37 39 42 45 48 50 52 53 52 50 52 51 48 48 49 46 46 49 51 53 54
42 35 33 32 30 28 26 26 25 22 27 32 26 23 22 20 19 18 17 17 16 16 17 16 16 15 14 15 15 16 16 16 17 17 16 17 18 19 19 20 20 19 20 21 22 23 24 26 27 27 28 29 30 31 32 32 32 33 34 34 35 35 37 39 40 41 42 42 41 40 39 38 37 37 37 37 39 41 44 47 50 52 53 54 53 51 52 53 48 46 48 47 46 48 50 52 54
43 37 35 34 32 30 28 28 28 26 32 35 29 25 26 25 22 22 21 19 19 20 20 20 20 19 18 18 18 18 18 19 19 20 20 21 21 22 23 23 24 24 24 25 26 26 27 29 30 31 31 32 33 34 34 35 35 35 35 36 36 36 36 38 40 41 42 41 40 39 38 38 37 37 38 38 40 43 46 49 51 54 55 55 55 52 52 54 50 45 46 47 46 47 49 51 54
46 42 38 37 35 34 32 32 32 32 35 37 32 26 28 29 26 25 24 22 23 24 23 24 24 23 22 22 22 22 21 22 22 23 25 25 25 26 27 27 28 28 28 29 29 30 31 32 33 33 34 34 35 36 36 36 36 36 37 38 38 38 38 39 40 40 41 41 41 40 39 39 39 39 39 40 42 45 48 51 53 56 57 57 56 52 52 54 52 47 45 48 47 46 49 52 55
50 48 44 42 40 37 37 37 37 37 38 38 33 26 29 33 29 26 27 27 26 27 27 27 28 27 27 26 26 25 25 25 25 26 28 30 30 30 30 31 31 31 31 32 32 33 34 34 35 36 36 36 37 37 37 37 37 38 38 39 40 41 41 41 41 41 41 41 41 41 41 41 41 41 41 43 45 47 50 54 56 58 59 58 55 52 51 54 54 49 46 47 48 46 48 52 56
53 51 47 42 40 41 42 41 41 41 39 37 33 28 32 36 30 27 30 30 28 29 30 31 31 31 30 30 30 29 28 28 28 29 31 32 33 33 33 34 34 34 34 34 35 36 36 37 37 37 38 37 38 38 39 39 39 40 40 41 42 43 44 44 44 44 43 42 41 41 41 42 43 44 45 46 48 51 54 57 59 60 59 58 55 51 52 54 55 50 47 48 49 47 48 53 56
54 53 47 44 46 47 47 44 43 42 39 36 34 32 34 36 33 31 32 32 31 31 32 34 34 33 33 33 32 32 32 32 32 33 33 34 35 35 36 36 36 36 36 36 37 37 38 38 38 38 39 39 39 40 40 41 42 42 42 43 45 46 46 47 47 47 46 45 44 43 43 45 46 47 48 50 51 54 57 58 59 60 59 57 53 51 52 55 55 50 46 48 50 49 50 54 57
56 54 49 50 53 52 48 46 44 43 39 37 36 35 36 37 37 36 35 34 34 33 33 36 36 35 36 35 35 35 35 35 35 36 35 35 36 37 38 38 39 38 38 38 39 39 40 40 39 39 40 40 41 41 42 43 43 44 45 46 47 48 49 49 50 49 49 48 47 46 46 47 48 49 50 51 53 55 56 58 59 59 58 56 54 52 53 55 53 49 47 49 50 50 52 56 60
57 54 54 56 56 51 48 46 45 44 41 39 39 39 37 37 40 41 38 37 37 35 35 37 38 37 37 37 37 37 38 38 39 39 38 38 37 38 39 40 40 40 40 40 41 41 41 41 41 41 42 42 43 43 44 44 45 46 46 47 47 48 49 50 51 51 50 50 49 48 48 48 50 51 51 53 54 56 57 58 59 58 57 56 55 54 55 55 52 49 49 50 51 53 56 59 62
59 57 58 58 56 52 49 47 45 44 41 40 40 40 38 38 41 43 40 39 39 39 39 40 40 40 39 39 39 39 40 41 41 41 41 40 40 40 41 41 42 42 42 42 42 43 43 43 44 44 44 45 45 45 46 46 47 47 47 47 47 48 48 49 51 52 51 51 50 50 51 52 52 53 53 55 57 58 59 58 57 56 56 56 55 55 56 56 53 51 51 52 54 56 59 62 66
63 61 61 60 57 54 51 50 47 45 42 41 41 40 39 41 43 44 43 41 41 41 42 43 43 43 42 41 41 42 43 43 44 44 43 43 43 43 43 44 43 43 43 44 45 45 46 46 46 46 47 47 47 48 48 48 48 48 47 48 48 48 48 49 50 51 52 53 53 54 55 56 55 54 54 57 59 60 59 56 54 54 56 56 56 57 57 57 55 53 53 55 57 59 62 66 69
69 66 64 63 61 58 56 54 50 48 47 45 44 43 43 45 47 46 45 44 44 44 45 45 45 45 44 44 44 45 46 46 46 46 45 45 46 46 46 46 45 45 45 46 47 47 48 48 48 48 48 48 48 49 49 49 49 49 49 48 48 49 50 50 51 52 54 55 56 57 59 59 58 55 56 58 59 57 56 54 53 55 58 59 58 58 59 59 56 55 56 58 60 62 65 69 72
Wind_Direction
205 207 209 213 213 214 217 223 228 229 232 235 236 239 241 245 248 248 251 253 253 255 259 263 264 261 259 259 261 264 267 268 267 266 267 266 265 261 256 259 250 242 252 262 261 251 237 231 237 242 250 259 262 265 263 264 268 271 274 275 272 270 273 285 299 306 309 311 311 311 310 307 304 305 307 309 311 311 313 316 321 324 325 328 332 333 333 334 338 341 343 341 338 338 341 342 338
205 206 207 212 213 216 221 225 225 226 230 234 235 235 237 243 246 246 249 251 251 255 260 263 264 264 262 262 262 264 265 264 262 261 261 257 257 256 252 251 244 242 252 261 260 249 248 246 242 241 245 250 255 258 259 262 265 269 272 274 277 276 279 291 300 303 305 307 308 308 305 302 302 306 308 309 309 312 317 322 327 328 329 333 333 334 335 338 341 343 344 343 343 346 349 350 348
209 208 207 210 213 217 221 223 222 224 227 229 229 230 234 240 244 246 249 250 251 256 259 262 264 264 263 263 262 261 260 258 259 259 256 251 250 251 251 253 252 252 255 263 261 249 250 251 244 240 241 240 242 251 259 266 269 269 272 274 276 277 283 292 297 299 301 304 304 302 300 300 303 307 309 310 312 316 322 326 328 328 331 334 336 338 339 341 343 344 344 346 349 354 357 356 354
211 211 210 209 212 216 218 220 221 224 226 226 227 229 233 238 243 246 247 248 251 255 258 261 262 263 263 261 260 256 250 251 258 261 257 248 244 248 254 258 258 255 255 264 264 252 252 253 242 240 246 254 261 267 273 277 276 272 273 277 281 283 287 291 294 297 299 301 301 301 302 305 309 311 312 314 317 321 324 326 327 329 334 338 341 342 343 344 344 346 347 351 354 359 6 2 358
210 211 213 210 210 215 217 218 220 224 225 226 229 230 233 236 238 240 241 243 245 249 254 259 262 263 262 259 257 251 240 244 255 257 253 247 247 253 258 260 258 256 257 267 269 255 253 256 251 251 261 272 280 283 283 283 280 278 278 282 287 289 290 292 294 295 296 299 303 307 309 311 312 313 314 317 320 323 324 326 328 332 336 341 345 345 345 345 345 349 353 357 359 3 10 9 1
207 210 213 211 209 212 215 217 220 223 224 225 227 229 230 230 230 231 232 232 232 239 248 256 259 258 258 256 252 243 233 241 252 254 256 253 254 257 261 262 261 260 263 271 270 257 257 265 268 269 272 277 282 285 286 283 279 276 278 284 290 291 290 291 293 295 298 303 308 309 310 311 311 312 315 320 322 324 325 327 331 334 336 343 347 347 347 346 348 354 359 4 7 9 9 10 1
206 208 212 212 208 210 213 215 218 221 223 222 222 224 224 223 222 224 225 225 229 243 256 260 259 256 255 253 247 236 227 233 245 249 257 262 262 259 259 262 264 266 267 268 265 259 263 273 275 275 275 277 279 283 284 280 277 275 278 284 287 288 291 294 296 300 304 306 307 307 307 308 309 312 318 322 324 326 327 329 332 335 338 344 348 348 348 349 353 360 5 10 15 17 12 9 4
206 206 210 211 206 206 210 212 213 216 221 223 222 223 225 224 223 226 228 231 244 260 270 271 269 266 260 256 247 235 229 229 237 237 238 252 261 259 261 265 269 272 269 265 260 258 262 267 271 273 273 273 274 278 279 274 273 274 277 281 284 288 294 299 301 303 303 304 304 305 305 307 311 316 321 324 326 327 329 331 334 337 341 347 350 348 350 352 357 4 9 16 21 24 20 15 12
206 207 209 211 207 205 207 209 212 214 219 225 228 230 229 227 230 240 252 258 265 272 276 277 273 270 264 261 255 243 237 235 237 241 238 240 246 251 256 261 264 265 267 266 262 261 264 266 269 272 272 273 275 276 276 276 279 282 285 288 291 294 297 300 301 302 302 303 303 304 306 311 316 320 324 326 326 328 331 334 337 340 345 351 352 350 352 354 359 7 13 21 26 29 29 25 19
205 205 208 209 209 209 209 212 215 216 218 225 234 240 237 230 231 238 252 263 268 270 270 270 267 264 259 254 255 252 247 243 241 245 250 249 248 251 255 257 259 260 262 264 265 267 271 274 275 275 273 274 278 282 285 289 292 295 296 296 297 298 300 301 301 302 302 303 304 308 313 317 321 324 326 326 326 330 333 335 338 343 348 353 353 351 354 355 359 6 12 23 29 32 34 30 25
205 203 206 209 212 213 215 219 222 223 224 228 236 246 246 238 235 234 239 248 257 262 265 266 267 264 258 252 251 252 251 250 247 247 254 257 258 262 265 265 265 266 268 269 271 274 276 278 279 279 279 281 285 289 291 293 295 296 297 297 297 298 299 300 302 304 305 307 312 317 319 320 322 325 326 325 326 331 334 335 338 344 350 353 353 354 355 356 358 3 7 17 27 31 33 33 31
208 205 206 209 211 212 216 221 226 232 234 236 241 250 253 249 245 243 243 248 255 261 265 268 269 265 260 255 252 253 252 252 251 250 254 257 260 263 266 268 268 269 271 273 276 278 280 282 284 286 288 290 292 293 293 293 294 294 294 295 296 297 299 303 307 310 312 316 319 320 320 319 322 326 327 327 327 330 334 335 338 343 349 352 355 358 358 358 357 359 1 9 19 26 29 29 31
214 214 212 211 211 212 214 217 225 232 234 236 242 248 251 252 252 252 252 254 257 261 264 266 267 264 260 257 255 253 254 252 252 252 253 255 257 260 262 263 265 266 269 272 275 278 280 282 284 287 289 290 291 292 292 292 293 293 294 295 296 299 303 309 315 318 318 318 318 319 318 318 323 328 329 329 329 331 334 337 341 342 344 351 357 4 8 6 0 358 358 3 12 19 23 24 27
215 218 219 220 219 218 217 218 223 228 230 232 237 242 247 251 254 256 258 259 259 261 262 264 264 264 261 259 257 255 255 254 254 254 254 255 256 257 259 260 262 265 269 272 274 276 277 279 281 283 285 286 288 289 290 292 293 294 295 298 301 306 310 313 316 317 316 316 318 319 318 320 325 328 329 330 331 333 336 338 343 343 342 348 357 10 17 16 9 2 357 359 10 17 21 24 21
214 218 219 221 226 229 228 226 227 229 231 234 237 243 248 252 257 260 262 263 263 264 264 264 264 264 264 262 261 259 259 258 258 257 257 258 258 259 260 262 264 267 270 272 273 275 276 277 279 281 283 284 286 288 292 295 297 298 301 305 308 311 312 311 312 314 318 320 320 319 320 325 328 330 329 330 332 335 337 339 342 342 341 345 357 13 19 22 17 9 3 2 10 17 23 29 18
213 219 221 221 226 231 234 234 234 237 240 241 241 243 246 250 257 260 262 263 264 266 266 265 264 265 266 266 265 264 263 262 262 261 262 261 261 262 264 265 267 269 271 272 274 276 278 279 281 282 284 286 289 292 294 297 299 302 307 311 311 311 310 310 313 318 322 323 323 324 327 330 331 332 332 333 337 337 338 339 340 340 340 343 354 9 16 23 22 15 12 10 14 19 26 35 24
209 214 219 222 226 229 232 237 239 240 242 242 241 241 242 249 260 265 266 266 267 268 268 266 266 268 269 270 270 268 267 265 264 264 264 264 264 265 266 267 268 270 272 275 277 279 282 283 285 287 289 291 293 294 295 297 300 304 308 310 311 311 313 316 323 328 331 330 330 330 332 334 336 338 337 337 338 338 339 339 341 340 338 342 349 0 11 19 19 18 17 14 15 19 23 28 22
211 210 214 218 224 229 233 239 242 240 237 239 241 243 246 256 270 273 271 271 271 271 272 272 272 274 274 275 273 271 269 267 265 264 264 264 265 265 267 269 271 274 277 281 284 287 289 290 291 294 297 296 295 296 298 300 303 307 309 310 312 315 320 327 335 339 338 334 334 335 337 340 344 346 344 341 339 339 339 338 340 339 336 336 338 344 351 349 350 0 4 5 5 7 11 12 9
218 216 215 215 221 229 237 244 247 244 239 239 246 250 252 262 270 268 266 264 267 270 274 273 271 275 278 275 272 270 268 267 266 265 265 265 266 268 272 276 280 285 289 291 292 293 294 295 297 302 304 302 299 300 302 304 308 312 313 313 316 320 324 331 335 336 334 335 338 343 346 348 352 353 352 350 346 344 342 338 335 333 332 328 322 320 321 320 321 330 338 342 346 348 350 354 355
220 220 219 216 216 221 232 244 251 247 238 236 244 253 252 250 250 250 245 233 220 171 105 234 228 231 297 278 265 267 269 271 273 272 274 274 276 278 284 288 290 293 294 295 295 296 298 299 302 305 304 303 303 304 306 309 312 315 316 318 319 320 323 326 327 330 336 342 348 351 353 355 357 357 357 355 351 346 342 339 332 329 327 319 309 304 303 307 312 317 323 328 332 335 334 334 338
218 217 219 217 214 213 220 235 239 227 214 206 212 235 234 220 215 210 197 174 126 92 74 63 63 67 54 37 28 5 329 311 302 297 296 296 297 297 295 289 286 289 292 295 302 306 307 308 309 307 306 307 309 311 312 314 316 318 320 323 323 322 325 329 334 341 349 354 354 354 354 356 357 355 353 353 351 347 342 338 335 332 327 315 303 298 298 301 306 313 319 322 324 326 324 321 320
207 210 213 212 208 206 208 218 214 200 186 176 180 193 200 198 193 185 170 139 102 73 55 44 34 30 22 12 4 348 323 306 297 297 297 297 296 293 289 285 283 288 294 302 313 318 317 315 313 312 314 318 320 321 322 322 322 323 325 327 329 331 336 345 352 357 358 356 356 356 354 353 352 349 346 345 346 344 340 336 334 332 327 314 301 295 295 297 301 306 310 313 314 316 316 313 310
111 194 203 200 195 191 193 202 192 176 162 152 156 171 197 204 188 170 144 117 92 57 38 18 4 356 348 332 320 306 294 287 285 285 285 286 285 283 283 285 289 294 303 313 322 324 322 321 322 325 330 331 330 331 330 328 327 327 329 330 333 339 349 359 3 3 359 355 355 355 352 349 347 346 348 349 348 344 338 332 330 330 326 317 305 299 298 300 303 305 306 307 308 309 308 308 305
75 124 171 177 177 174 177 178 159 145 139 119 109 139 224 216 172 144 124 104 70 14 353 344 330 320 311 298 289 284 283 284 283 283 282 282 280 280 284 290 298 307 316 325 330 331 331 335 339 342 342 340 339 339 337 334 332 333 335 338 340 347 359 6 5 2 358 357 357 356 354 353 354 358 2 4 3 358 353 346 339 334 329 322 314 310 308 308 308 308 307 307 307 306 305 304 302
63 77 119 153 153 149 148 143 129 121 119 82 47 304 272 244 170 141 128 112 313 300 304 315 314 312 304 287 285 284 284 285 284 283 282 280 281 285 293 303 312 321 332 340 345 347 350 354 352 349 346 344 344 343 342 341 342 342 342 345 349 355 6 7 3 1 3 6 8 7 6 5 7 10 12 15 16 14 11 7 2 355 349 342 335 329 325 322 319 316 313 310 308 305 303 300 299
60 68 83 107 116 117 114 115 119 119 140 227 259 271 271 269 251 196 187 210 241 271 292 301 311 321 329 314 305 300 294 289 286 286 284 285 285 290 302 326 354 9 13 13 10 7 4 1 355 352 352 354 355 356 359 1 1 359 357 359 1 6 9 7 6 7 11 15 17 16 17 18 17 17 17 19 21 20 18 17 15 12 10 7 3 359 356 351 346 340 335 329 323 316 308 302 297
49 58 66 76 83 86 91 104 111 126 182 227 245 252 256 260 259 240 226 230 242 257 283 308 318 321 344 82 68 15 335 320 314 313 320 329 335 6 63 69 64 60 51 34 22 19 18 16 14 15 17 17 16 20 22 22 21 19 18 16 15 17 14 10 10 11 13 16 18 22 26 26 21 17 16 17 20 19 18 19 17 15 14 13 13 12 11 9 6 1 355 348 340 332 323 312 303
36 46 52 58 65 66 66 66 81 156 214 230 239 243 245 248 249 248 244 243 250 249 179 50 313 74 104 101 96 89 78 65 52 52 62 73 81 85 84 77 70 68 61 50 45 45 44 43 41 40 38 35 32 32 31 30 28 26 24 23 22 21 18 16 12 11 13 14 16 19 20 17 12 10 9 12 17 16 15 18 18 16 13 12 14 15 17 17 13 9 5 359 350 341 331 321 311
25 38 45 48 52 56 55 51 46 32 244 243 246 250 251 253 254 258 255 245 238 182 131 131 132 116 105 101 99 97 93 86 82 80 82 83 83 83 82 79 77 76 74 70 67 62 58 52 49 45 41 38 36 33 32 30 29 28 26 26 27 23 17 15 11 10 15 17 18 16 10 7 8 8 7 10 17 14 13 19 20 16 13 11 10 12 14 11 10 13 14 10 2 353 342 330 318
18 31 46 47 48 51 54 54 52 52 42 272 256 253 255 260 267 274 245 185 150 135 134 131 119 109 103 101 98 96 92 89 85 83 83 82 82 81 80 80 80 80 79 74 69 62 55 49 43 40 37 36 34 31 30 29 28 28 28 29 29 27 23 20 18 17 17 17 17 16 12 11 10 10 11 15 19 14 10 12 10 9 10 11 10 9 7 6 12 19 20 17 13 7 359 347 333
17 23 44 50 49 50 54 62 66 70 76 88 123 145 115 81 64 63 87 116 127 134 134 120 110 107 105 102 99 95 92 89 86 83 82 81 80 79 77 75 73 71 69 63 58 52 46 41 36 34 33 33 31 28 26 24 24 25 26 28 27 26 23 21 20 21 19 15 12 8 9 10 8 9 13 15 13 8 3 4 6 9 12 13 13 10 4 5 11 13 12 14 14 11 8 2 350
24 19 36 49 51 51 54 62 74 82 88 96 100 97 89 82 77 79 96 114 125 134 128 113 108 107 104 102 98 95 92 90 88 87 85 83 80 77 72 67 62 57 54 49 44 41 37 34 33 34 34 34 30 25 23 21 20 20 20 21 19 16 13 13 16 19 19 20 18 13 11 11 9 10 11 10 7 2 359 5 13 15 16 16 15 11 7 6 5 4 5 9 10 10 9 7 2
34 23 28 43 51 54 56 61 71 84 92 93 91 92 90 87 84 87 96 106 114 119 115 110 108 104 98 95 95 92 88 86 86 84 83 80 78 76 71 65 60 56 52 46 39 36 34 38 42 41 37 32 28 25 23 20 18 16 15 15 13 9 7 8 14 17 17 22 25 22 19 19 18 14 12 11 8 5 3 6 10 11 12 14 14 11 7 6 6 6 8 9 10 11 11 9 8
42 36 30 36 46 54 60 64 70 80 88 90 89 91 90 87 83 83 88 95 101 105 105 105 103 96 90 92 93 89 83 80 79 77 75 71 70 71 69 66 63 62 59 51 44 39 41 51 51 43 33 27 26 25 25 24 21 15 12 12 12 11 9 9 10 11 13 17 18 14 13 14 14 12 12 12 11 7 3 359 360 3 6 9 10 10 7 5 6 8 8 8 10 12 12 11 8
31 42 35 33 40 49 58 65 75 79 84 85 84 85 86 83 79 77 80 87 94 99 100 100 98 94 91 92 91 86 82 79 79 78 74 69 68 68 67 64 61 60 57 51 47 47 57 65 53 37 28 24 22 22 25 27 22 14 10 6 6 10 12 11 7 6 6 5 4 2 3 4 5 5 7 9 8 6 1 357 357 0 3 6 7 6 4 3 3 5 6 7 9 11 12 11 9
344 16 35 26 30 46 53 59 83 100 95 83 75 72 75 79 79 79 79 83 90 96 100 102 102 100 96 92 88 82 77 75 76 76 73 69 67 67 66 60 55 53 50 47 48 55 68 67 44 30 24 21 18 15 16 19 15 10 8 6 5 6 6 6 4 1 359 357 356 356 357 358 358 360 1 2 3 3 0 358 357 358 360 2 2 1 0 1 1 2 3 4 7 9 10 10 9
294 295 309 336 341 355 25 59 120 152 145 116 85 69 71 79 84 88 89 89 95 101 104 105 106 108 103 95 87 77 70 67 68 68 67 65 63 62 58 53 49 48 45 45 47 52 61 51 29 20 17 16 13 7 3 3 4 5 6 7 7 4 1 0 359 357 354 353 352 352 352 353 353 355 356 356 357 358 359 358 356 354 353 356 358 357 356 357 359 359 360 1 4 5 7 7 7
278 275 264 255 266 278 278 250 233 212 166 113 95 85 91 93 84 89 100 104 110 118 120 117 114 114 108 98 87 74 62 58 58 57 57 56 56 55 51 45 41 38 36 35 37 39 39 29 17 11 10 11 8 1 351 346 350 354 357 0 2 0 358 356 354 351 349 348 347 347 347 347 348 349 349 350 351 353 354 355 354 352 349 350 352 354 354 354 355 356 357 358 360 2 3 3 4
271 270 264 253 244 250 268 266 258 252 239 177 87 76 83 107 100 100 121 129 137 144 145 144 138 129 117 99 83 68 53 45 42 40 39 40 41 42 41 37 30 26 23 20 17 15 14 11 7 2 1 3 1 354 346 338 338 340 343 346 350 352 353 352 350 348 345 344 343 342 341 342 343 345 345 345 345 347 349 350 351 350 348 347 349 352 353 352 352 352 353 355 356 358 359 0 1
266 265 263 258 247 237 249 258 262 263 265 266 256 262 2 34 109 106 137 179 177 176 171 174 182 182 177 168 179 330 351 5 11 15 17 19 21 23 25 24 21 16 9 7 1 354 352 352 351 349 348 348 346 343 340 336 333 333 333 333 336 342 345 346 344 343 342 341 340 338 336 336 338 341 343 343 343 344 346 348 348 347 346 345 345 348 350 351 350 348 348 350 352 354 356 357 358
261 260 260 259 254 243 241 246 255 261 264 271 273 271 277 288 291 292 297 277 246 228 220 221 221 221 225 233 251 281 308 328 343 348 353 359 3 5 7 7 6 5 2 357 350 344 341 340 339 337 335 335 334 334 334 333 332 332 332 330 328 330 335 337 338 337 336 336 336 335 332 331 333 335 339 343 344 345 346 347 348 347 345 342 341 342 344 346 346 346 345 345 348 350 352 355 356
257 256 255 256 256 252 247 244 247 253 260 266 266 268 271 277 286 294 296 288 273 257 250 248 244 240 241 247 258 276 292 306 319 327 335 342 346 350 353 355 353 352 353 351 344 339 336 335 333 330 330 332 333 333 332 333 334 333 332 330 328 327 328 330 331 331 331 330 330 330 329 328 328 328 332 337 341 342 344 345 347 347 344 341 339 338 338 340 342 343 343 342 344 347 350 353 354
253 251 249 253 255 254 253 250 247 247 254 260 260 263 266 266 274 286 292 289 282 277 269 260 256 256 256 258 264 273 285 296 306 316 324 330 334 338 340 341 341 340 342 341 339 337 334 332 330 328 329 331 333 334 334 334 334 334 332 330 329 328 328 328 328 327 327 326 325 325 324 323 323 323 324 329 334 336 339 341 342 343 342 341 340 339 337 337 339 341 341 339 340 345 348 351 352
249 246 244 249 251 253 256 256 252 247 249 256 258 260 261 262 265 271 279 281 284 288 286 279 270 264 259 261 268 276 285 294 302 310 317 319 323 325 328 330 331 331 333 333 332 332 331 329 327 326 326 329 331 331 332 332 332 331 330 329 328 328 328 327 327 325 324 323 322 321 320 318 318 318 318 320 324 328 332 335 337 339 339 339 339 340 339 337 338 339 340 338 338 342 347 349 351
247 243 241 246 248 252 256 257 255 251 250 253 254 254 256 262 266 264 265 270 275 283 286 288 286 279 270 266 269 277 286 293 298 302 307 310 313 316 317 321 324 326 326 327 327 326 326 325 323 323 323 324 326 327 328 328 328 328 327 327 327 327 327 326 325 324 322 321 319 317 316 315 313 313 313 314 316 320 325 329 332 335 336 336 336 338 338 335 335 338 338 336 337 341 344 347 349
247 244 241 244 245 248 253 258 258 255 254 253 250 249 251 256 263 263 263 265 268 271 272 275 279 281 280 279 279 282 285 287 288 291 296 300 304 307 308 311 315 318 319 320 320 320 320 320 319 319 319 320 322 323 324 325 325 324 324 325 326 326 325 325 324 323 322 320 318 316 314 312 310 309 309 310 311 315 321 326 329 331 333 333 332 334 335 332 331 336 336 333 335 338 341 344 346
247 245 244 245 244 245 249 255 257 257 257 254 249 248 249 248 253 259 261 264 267 267 265 264 265 268 271 276 281 284 283 281 282 284 288 292 297 298 299 301 305 309 311 312 313 313 314 314 315 315 316 317 318 319 321 322 322 321 322 323 324 324 324 324 323 323 322 321 319 316 313 311 308 307 307 307 309 314 320 323 326 327 328 329 328 328 331 330 327 332 335 331 332 336 338 341 344
248 246 246 246 244 244 245 250 254 255 255 254 248 247 250 248 249 253 255 259 264 265 264 263 263 263 264 267 272 276 278 280 283 284 284 287 290 293 293 296 299 301 304 305 306 307 308 309 310 311 312 314 315 317 319 319 319 319 320 320 321 322 322 323 324 324 325 323 321 318 314 311 308 307 306 306 309 314 318 320 322 324 324 325 324 323 326 327 324 326 332 331 329 332 335 338 341
250 247 245 246 244 243 242 244 247 247 251 254 250 246 251 251 250 252 252 255 261 263 263 264 265 264 264 265 267 270 273 278 282 286 286 286 287 289 291 293 296 298 299 300 302 303 305 306 307 308 310 311 313 315 317 317 318 318 319 319 321 321 322 322 323 324 325 325 323 319 315 312 309 308 307 308 311 313 314 316 317 320 321 321 321 320 322 325 321 320 327 329 327 328 331 335 338
249 246 243 242 241 240 238 238 239 240 245 252 251 249 254 253 249 252 256 257 260 262 263 265 266 265 265 265 266 267 269 273 278 283 286 287 287 288 290 292 294 296 298 299 300 302 303 304 305 306 308 310 312 314 315 316 316 317 317 318 319 320 320 321 321 322 324 324 323 320 317 315 312 311 310 310 310 310 311 312 314 317 319 320 319 318 320 322 320 316 320 326 325 324 327 331 334
244 243 240 238 238 238 236 235 236 237 241 248 251 252 256 256 252 255 259 258 260 264 266 266 266 266 266 267 268 268 270 273 277 282 286 288 289 290 290 291 292 295 297 299 300 301 302 302 303 305 307 309 312 313 313 314 314 315 316 317 318 319 319 319 319 320 322 322 322 320 318 316 315 313 311 309 309 308 309 311 313 316 318 319 318 317 318 320 318 314 314 320 323 321 324 328 331
241 243 241 239 239 239 237 235 236 238 240 246 250 250 254 258 257 256 258 259 260 264 266 267 268 269 270 271 272 273 275 278 280 282 284 287 289 290 290 291 293 294 296 298 299 300 300 301 302 304 306 308 310 311 311 312 313 314 315 316 317 318 318 318 318 318 320 321 321 320 318 317 316 313 310 309 308 308 310 311 313 315 318 319 317 315 317 317 316 313 310 315 320 319 321 325 328
238 241 241 239 238 237 236 234 235 238 239 243 247 246 250 257 259 257 257 259 259 262 265 266 268 269 271 273 275 277 279 279 280 280 281 284 286 288 289 291 292 293 295 296 297 298 298 300 302 303 305 306 307 308 310 311 312 314 314 315 316 317 317 317 317 317 319 319 319 319 318 317 316 313 311 309 308 309 311 312 314 316 318 319 316 313 314 316 314 310 308 312 317 317 318 322 325
238 239 238 237 238 237 236 235 235 238 238 240 242 243 245 252 256 256 256 258 259 260 264 267 268 270 272 274 275 278 279 279 279 279 280 282 284 286 288 290 291 292 293 295 295 297 298 299 301 303 304 304 306 307 309 310 312 313 314 315 316 317 317 317 317 317 318 318 318 318 317 316 315 313 310 309 309 310 313 313 315 317 318 318 315 310 312 314 311 307 306 310 315 316 317 320 322
240 239 239 241 242 241 240 238 237 238 238 237 239 240 242 246 252 254 254 256 259 260 261 265 267 269 271 273 275 276 277 278 279 279 281 283 284 286 288 289 291 292 293 295 297 297 298 299 300 301 302 303 305 307 308 309 311 312 313 314 315 316 316 316 316 317 318 318 318 318 317 316 314 313 312 311 312 312 314 314 315 316 318 318 314 309 311 314 309 305 306 310 314 316 317 319 322
242 241 242 245 247 246 244 242 240 240 240 238 239 241 242 244 249 253 254 255 258 259 259 261 264 267 268 271 274 275 276 278 279 280 281 283 284 285 286 287 289 291 293 295 296 297 298 299 299 300 301 302 304 306 307 309 310 310 311 312 313 314 316 316 316 316 318 318 318 318 317 315 314 314 313 313 313 314 314 315 316 317 318 318 314 309 310 313 308 304 306 309 312 315 317 319 321
243 241 242 244 245 245 244 243 242 241 241 240 239 241 242 244 247 249 251 252 254 256 257 259 261 264 266 269 271 273 275 276 277 279 280 282 283 283 284 286 287 289 291 293 294 295 295 297 297 298 300 301 304 305 307 308 308 309 310 311 312 314 315 316 315 316 317 317 317 316 315 315 314 313 313 314 314 314 316 317 318 320 321 318 313 308 310 311 307 303 305 307 310 313 315 317 318
241 239 239 241 242 242 241 241 240 239 238 237 237 237 238 241 244 245 247 249 250 252 254 257 260 262 264 266 268 270 272 274 275 277 279 281 282 283 284 285 287 288 289 290 292 292 293 294 296 297 299 301 304 305 306 307 307 308 309 311 312 313 314 314 314 315 316 316 315 315 314 314 313 311 312 315 316 316 318 319 320 322 323 320 312 307 309 310 306 303 304 305 308 311 313 314 316